| time (UTC) | temp F | wind direction | speed knots | gust knots | rain 1hr in | rain 24hr in | rain mn in | humidity % | barometer mb |
| 20260504110545 | 48 | 200 | 2.6 | 5.2 | 0.00 | 0.00 | 0.00 | 58 | 1015.7 |
| 20260504100549 | 50 | 194 | 2.6 | 4.3 | 0.00 | 0.00 | 0.00 | 50 | 1015.6 |
| 20260504081553 | 51 | 236 | 0.9 | 4.3 | 0.00 | 0.00 | 0.00 | 48 | 1015.8 |
| 20260504081047 | 51 | 234 | 1.7 | 4.3 | 0.00 | 0.00 | 0.00 | 48 | 1015.9 |
| 20260504080547 | 51 | 223 | 1.7 | 4.3 | 0.00 | 0.00 | 0.00 | 48 | 1015.9 |
| 20260504050547 | 54 | 238 | 2.6 | 7.0 | 0.00 | 0.00 | 0.00 | 46 | 1016.0 |
| 20260504050117 | 53 | 267 | 2.6 | 8.7 | 0.00 | 0.00 | 0.00 | 45 | 1016.0 |
| 20260504045547 | 54 | 251 | 2.6 | 8.7 | 0.00 | 0.00 | 0.00 | 45 | 1016.0 |
| 20260504045047 | 54 | 245 | 3.5 | 8.7 | 0.00 | 0.00 | 0.00 | 45 | 1016.1 |
| 20260504044545 | 53 | 238 | 2.6 | 7.0 | 0.00 | 0.00 | 0.00 | 45 | 1016.0 |
| 20260504044048 | 53 | 251 | 3.5 | 7.0 | 0.00 | 0.00 | 0.00 | 46 | 1016.0 |
| 20260504043548 | 53 | 232 | 2.6 | 7.0 | 0.00 | 0.00 | 0.00 | 46 | 1015.9 |
| 20260504043047 | 53 | 244 | 2.6 | 7.0 | 0.00 | 0.00 | 0.00 | 46 | 1015.9 |
| 20260504042547 | 53 | 250 | 2.6 | 7.0 | 0.00 | 0.00 | 0.00 | 46 | 1015.8 |
| 20260504042047 | 53 | 249 | 2.6 | 7.0 | 0.00 | 0.00 | 0.00 | 46 | 1015.8 |
| 20260504041548 | 53 | 250 | 2.6 | 7.0 | 0.00 | 0.00 | 0.00 | 46 | 1015.8 |
| 20260504041047 | 53 | 242 | 2.6 | 6.1 | 0.00 | 0.00 | 0.00 | 46 | 1015.7 |
| 20260504040547 | 53 | 243 | 2.6 | 7.0 | 0.00 | 0.00 | 0.00 | 46 | 1015.7 |
| 20260504035547 | 53 | 244 | 1.7 | 7.0 | 0.00 | 0.00 | 0.00 | 47 | 1015.7 |
| 20260504035050 | 53 | 256 | 2.6 | 7.8 | 0.00 | 0.00 | 0.00 | 47 | 1015.7 |
| 20260504034552 | 53 | 253 | 2.6 | 7.8 | 0.00 | 0.00 | 0.00 | 46 | 1015.7 |
| 20260504034047 | 53 | 252 | 2.6 | 7.8 | 0.00 | 0.00 | 0.00 | 46 | 1015.7 |
| 20260504033548 | 53 | 234 | 1.7 | 6.1 | 0.00 | 0.00 | 0.00 | 46 | 1015.7 |
| 20260504033057 | 53 | 255 | 1.7 | 5.2 | 0.00 | 0.00 | 0.00 | 46 | 1015.6 |
| 20260504032548 | 53 | 253 | 1.7 | 5.2 | 0.00 | 0.00 | 0.00 | 47 | 1015.6 |
| 20260504032048 | 53 | 252 | 1.7 | 7.0 | 0.00 | 0.00 | 0.00 | 46 | 1015.6 |
| 20260504031619 | 53 | 254 | 2.6 | 7.0 | 0.00 | 0.00 | 0.00 | 46 | 1015.6 |
| 20260504031046 | 53 | 255 | 1.7 | 5.2 | 0.00 | 0.00 | 0.00 | 46 | 1015.6 |
| 20260504030547 | 53 | 239 | 1.7 | 4.3 | 0.00 | 0.00 | 0.00 | 47 | 1015.4 |
| 20260504030053 | 53 | 248 | 1.7 | 6.1 | 0.00 | 0.00 | 0.00 | 47 | 1015.5 |
| 20260504025547 | 53 | 258 | 1.7 | 6.1 | 0.00 | 0.00 | 0.00 | 46 | 1015.4 |
| 20260504025049 | 53 | 262 | 2.6 | 6.1 | 0.00 | 0.00 | 0.00 | 46 | 1015.4 |
| 20260504024553 | 53 | 246 | 1.7 | 4.3 | 0.00 | 0.00 | 0.00 | 47 | 1015.4 |
| 20260504024048 | 53 | 240 | 1.7 | 6.1 | 0.00 | 0.00 | 0.00 | 47 | 1015.4 |
| 20260504023546 | 53 | 250 | 1.7 | 6.1 | 0.00 | 0.00 | 0.00 | 46 | 1015.5 |
| 20260504023049 | 53 | 250 | 1.7 | 7.0 | 0.00 | 0.00 | 0.00 | 46 | 1015.6 |
| 20260504022547 | 53 | 250 | 1.7 | 7.0 | 0.00 | 0.00 | 0.00 | 46 | 1015.6 |
| 20260504022047 | 53 | 251 | 1.7 | 7.0 | 0.00 | 0.00 | 0.00 | 47 | 1015.7 |
| 20260504021602 | 53 | 249 | 1.7 | 7.0 | 0.00 | 0.00 | 0.00 | 47 | 1015.5 |
| 20260504021047 | 53 | 265 | 1.7 | 7.0 | 0.00 | 0.00 | 0.00 | 48 | 1015.4 |
| 20260504020547 | 52 | 248 | 2.6 | 7.0 | 0.00 | 0.00 | 0.00 | 48 | 1015.6 |
| 20260504020052 | 52 | 250 | 1.7 | 4.3 | 0.00 | 0.00 | 0.00 | 49 | 1015.6 |
| 20260504015547 | 51 | 258 | 1.7 | 4.3 | 0.00 | 0.00 | 0.00 | 51 | 1015.6 |
| 20260504015047 | 50 | 252 | 0.9 | 3.5 | 0.00 | 0.00 | 0.00 | 53 | 1015.5 |
| 20260504014553 | 50 | 270 | 0.0 | 2.6 | 0.00 | 0.00 | 0.00 | 55 | 1015.5 |
| 20260504014046 | 50 | 0 | 0.0 | 1.7 | 0.00 | 0.00 | 0.00 | 55 | 1015.4 |
| 20260504013546 | 51 | 0 | 0.0 | 2.6 | 0.00 | 0.00 | 0.00 | 55 | 1015.3 |
| 20260504013051 | 51 | 0 | 0.0 | 3.5 | 0.00 | 0.00 | 0.00 | 53 | 1015.2 |
| 20260504012549 | 51 | 254 | 1.7 | 3.5 | 0.00 | 0.00 | 0.00 | 50 | 1015.3 |
| 20260504012048 | 51 | 248 | 1.7 | 3.5 | 0.00 | 0.00 | 0.00 | 52 | 1015.3 |
| 20260504011553 | 50 | 246 | 0.9 | 3.5 | 0.00 | 0.00 | 0.00 | 54 | 1015.2 |
| 20260504011048 | 50 | 0 | 0.0 | 0.9 | 0.00 | 0.00 | 0.00 | 55 | 1015.2 |
| 20260504010547 | 51 | 0 | 0.0 | 2.6 | 0.00 | 0.00 | 0.00 | 55 | 1015.2 |
| 20260504010057 | 51 | 0 | 0.0 | 2.6 | 0.00 | 0.00 | 0.00 | 53 | 1015.0 |
| 20260504005547 | 51 | 0 | 0.0 | 3.5 | 0.00 | 0.00 | 0.00 | 54 | 1015.2 |
| 20260504005047 | 51 | 0 | 0.0 | 3.5 | 0.00 | 0.00 | 0.00 | 53 | 1015.1 |
| 20260504004555 | 51 | 0 | 0.9 | 4.3 | 0.00 | 0.00 | 0.00 | 52 | 1015.1 |
| 20260504004047 | 51 | 236 | 0.0 | 4.3 | 0.00 | 0.00 | 0.00 | 52 | 1015.1 |
| 20260504003547 | 52 | 236 | 0.0 | 4.3 | 0.00 | 0.00 | 0.00 | 54 | 1015.0 |
| 20260504003047 | 52 | 0 | 0.0 | 2.6 | 0.00 | 0.00 | 0.00 | 53 | 1014.9 |
| 20260504002547 | 53 | 246 | 0.0 | 2.6 | 0.00 | 0.00 | 0.00 | 52 | 1014.9 |
| 20260504002047 | 53 | 246 | 0.0 | 2.6 | 0.00 | 0.00 | 0.00 | 51 | 1014.8 |
| 20260504001608 | 53 | 246 | 0.9 | 3.5 | 0.00 | 0.00 | 0.00 | 48 | 1014.6 |
| 20260504001048 | 54 | 246 | 0.9 | 3.5 | 0.00 | 0.00 | 0.00 | 48 | 1014.6 |
| 20260504000548 | 54 | 246 | 0.9 | 3.5 | 0.00 | 0.00 | 0.00 | 47 | 1014.5 |
| 20260504000058 | 54 | 234 | 0.9 | 3.5 | 0.00 | 0.00 | 0.00 | 46 | 1014.4 |
| 20260503235548 | 55 | 257 | 1.7 | 3.5 | 0.00 | 0.00 | 0.00 | 45 | 1014.5 |
| 20260503235050 | 55 | 258 | 0.9 | 2.6 | 0.00 | 0.00 | 0.00 | 45 | 1014.3 |
| 20260503234547 | 55 | 258 | 0.9 | 5.2 | 0.00 | 0.00 | 0.00 | 45 | 1014.3 |
| 20260503234047 | 55 | 258 | 1.7 | 5.2 | 0.00 | 0.00 | 0.00 | 45 | 1014.3 |
| 20260503233547 | 56 | 256 | 1.7 | 5.2 | 0.00 | 0.00 | 0.00 | 44 | 1014.2 |
| 20260503233050 | 56 | 247 | 1.7 | 6.1 | 0.00 | 0.00 | 0.00 | 43 | 1014.2 |
| 20260503232548 | 56 | 269 | 2.6 | 6.1 | 0.00 | 0.00 | 0.00 | 42 | 1014.2 |
| 20260503232048 | 56 | 274 | 2.6 | 6.1 | 0.00 | 0.00 | 0.00 | 43 | 1014.3 |
| 20260503231558 | 56 | 266 | 2.6 | 6.1 | 0.00 | 0.00 | 0.00 | 42 | 1014.2 |
| 20260503231048 | 56 | 239 | 2.6 | 7.0 | 0.00 | 0.00 | 0.00 | 42 | 1014.3 |
| 20260503230550 | 56 | 268 | 3.5 | 7.0 | 0.00 | 0.00 | 0.00 | 42 | 1014.3 |
| 20260503230059 | 56 | 250 | 3.5 | 7.8 | 0.00 | 0.00 | 0.00 | 41 | 1014.2 |
| 20260503225546 | 56 | 259 | 3.5 | 9.6 | 0.00 | 0.00 | 0.00 | 41 | 1014.2 |
| 20260503225052 | 57 | 258 | 4.3 | 9.6 | 0.00 | 0.00 | 0.00 | 41 | 1014.0 |
| 20260503224556 | 57 | 265 | 3.5 | 7.8 | 0.00 | 0.00 | 0.00 | 40 | 1014.0 |
| 20260503224048 | 57 | 0 | 4.3 | 7.8 | 0.00 | 0.00 | 0.00 | 40 | 1014.1 |
| 20260503223546 | 57 | 266 | 3.5 | 7.0 | 0.00 | 0.00 | 0.00 | 40 | 1014.0 |
| 20260503223051 | 57 | 266 | 2.6 | 7.0 | 0.00 | 0.00 | 0.00 | 41 | 1014.0 |
| 20260503222546 | 57 | 227 | 2.6 | 7.8 | 0.00 | 0.00 | 0.00 | 41 | 1014.1 |
| 20260503222047 | 57 | 277 | 3.5 | 7.8 | 0.00 | 0.00 | 0.00 | 41 | 1014.1 |
| 20260503221558 | 57 | 271 | 4.3 | 7.8 | 0.00 | 0.00 | 0.00 | 40 | 1014.0 |
| 20260503221049 | 57 | 259 | 2.6 | 7.8 | 0.00 | 0.00 | 0.00 | 41 | 1014.0 |
| 20260503220547 | 57 | 265 | 4.3 | 8.7 | 0.00 | 0.00 | 0.00 | 40 | 1014.0 |
| 20260503220052 | 57 | 257 | 2.6 | 8.7 | 0.00 | 0.00 | 0.00 | 42 | 1014.1 |
| 20260503215546 | 57 | 280 | 4.3 | 8.7 | 0.00 | 0.00 | 0.00 | 40 | 1014.1 |
| 20260503215048 | 57 | 234 | 4.3 | 7.8 | 0.00 | 0.00 | 0.00 | 40 | 1014.0 |
| 20260503214556 | 57 | 249 | 4.3 | 8.7 | 0.00 | 0.00 | 0.00 | 41 | 1014.0 |
| 20260503214050 | 57 | 245 | 2.6 | 8.7 | 0.00 | 0.00 | 0.00 | 40 | 1014.1 |
| 20260503213547 | 57 | 265 | 4.3 | 8.7 | 0.00 | 0.00 | 0.00 | 39 | 1014.1 |
| 20260503213123 | 57 | 238 | 4.3 | 8.7 | 0.00 | 0.00 | 0.00 | 41 | 1014.1 |
| 20260503212547 | 57 | 272 | 3.5 | 8.7 | 0.00 | 0.00 | 0.00 | 40 | 1014.1 |
| 20260503212050 | 57 | 236 | 3.5 | 8.7 | 0.00 | 0.00 | 0.00 | 41 | 1014.0 |
| 20260503211614 | 57 | 250 | 4.3 | 8.7 | 0.00 | 0.00 | 0.00 | 40 | 1014.0 |
| 20260503211049 | 57 | 257 | 4.3 | 8.7 | 0.00 | 0.00 | 0.00 | 41 | 1014.0 |
| 20260503210547 | 56 | 240 | 4.3 | 7.8 | 0.00 | 0.00 | 0.00 | 42 | 1014.0 |
| 20260503210047 | 57 | 259 | 3.5 | 7.8 | 0.00 | 0.00 | 0.00 | 39 | 1014.0 |
| 20260503205547 | 57 | 270 | 3.5 | 6.1 | 0.00 | 0.00 | 0.00 | 40 | 1014.0 |
| 20260503205047 | 57 | 235 | 2.6 | 8.7 | 0.00 | 0.00 | 0.00 | 41 | 1014.0 |
| 20260503204602 | 57 | 271 | 4.3 | 8.7 | 0.00 | 0.00 | 0.00 | 42 | 1014.1 |
| 20260503204046 | 57 | 269 | 4.3 | 7.0 | 0.00 | 0.00 | 0.00 | 40 | 1014.1 |
| 20260503203546 | 56 | 257 | 2.6 | 7.0 | 0.00 | 0.00 | 0.00 | 41 | 1014.1 |
| 20260503203054 | 56 | 276 | 3.5 | 7.0 | 0.00 | 0.00 | 0.00 | 41 | 1014.2 |
| 20260503202547 | 56 | 269 | 3.5 | 9.6 | 0.00 | 0.00 | 0.00 | 41 | 1014.2 |
| 20260503202051 | 57 | 254 | 2.6 | 9.6 | 0.00 | 0.00 | 0.00 | 41 | 1014.3 |
| 20260503201549 | 56 | 264 | 4.3 | 7.8 | 0.00 | 0.00 | 0.00 | 40 | 1014.1 |
| 20260503201046 | 55 | 234 | 1.7 | 5.2 | 0.00 | 0.00 | 0.00 | 43 | 1014.2 |
| 20260503200546 | 55 | 269 | 0.9 | 11.3 | 0.00 | 0.00 | 0.00 | 43 | 1014.3 |
| 20260503200052 | 55 | 257 | 4.3 | 11.3 | 0.00 | 0.00 | 0.00 | 43 | 1014.4 |
| 20260503195548 | 56 | 275 | 3.5 | 10.4 | 0.00 | 0.00 | 0.00 | 40 | 1014.4 |
| 20260503195046 | 56 | 267 | 5.2 | 10.4 | 0.00 | 0.00 | 0.00 | 39 | 1014.5 |
| 20260503194553 | 56 | 282 | 4.3 | 8.7 | 0.00 | 0.00 | 0.00 | 42 | 1014.5 |
| 20260503194047 | 56 | 254 | 1.7 | 8.7 | 0.00 | 0.00 | 0.00 | 43 | 1014.6 |
| 20260503193547 | 56 | 268 | 3.5 | 8.7 | 0.00 | 0.00 | 0.00 | 42 | 1014.6 |
| 20260503193046 | 56 | 264 | 5.2 | 8.7 | 0.00 | 0.00 | 0.00 | 42 | 1014.6 |
| 20260503192546 | 55 | 252 | 4.3 | 8.7 | 0.00 | 0.00 | 0.00 | 42 | 1014.6 |
| 20260503192047 | 55 | 267 | 4.3 | 7.8 | 0.00 | 0.00 | 0.00 | 42 | 1014.8 |
| 20260503191602 | 54 | 264 | 1.7 | 7.0 | 0.00 | 0.00 | 0.00 | 44 | 1014.7 |
| 20260503191047 | 55 | 251 | 1.7 | 6.1 | 0.00 | 0.00 | 0.00 | 42 | 1014.9 |
| 20260503190547 | 55 | 125 | 1.7 | 10.4 | 0.00 | 0.00 | 0.00 | 44 | 1014.9 |
| 20260503190046 | 55 | 270 | 6.1 | 10.4 | 0.00 | 0.00 | 0.00 | 43 | 1014.9 |
| 20260503185547 | 55 | 271 | 5.2 | 9.6 | 0.00 | 0.00 | 0.00 | 44 | 1014.8 |
| 20260503185047 | 54 | 265 | 4.3 | 8.7 | 0.00 | 0.00 | 0.00 | 46 | 1014.9 |
| 20260503184607 | 54 | 257 | 3.5 | 8.7 | 0.00 | 0.00 | 0.00 | 44 | 1015.1 |
| 20260503184047 | 54 | 263 | 5.2 | 11.3 | 0.00 | 0.00 | 0.00 | 45 | 1015.1 |
| 20260503183547 | 54 | 269 | 2.6 | 11.3 | 0.00 | 0.00 | 0.00 | 44 | 1015.1 |
| 20260503183052 | 54 | 292 | 2.6 | 11.3 | 0.00 | 0.00 | 0.00 | 43 | 1015.3 |
| 20260503182547 | 54 | 261 | 5.2 | 8.7 | 0.00 | 0.00 | 0.00 | 41 | 1015.4 |
| 20260503182047 | 55 | 247 | 4.3 | 8.7 | 0.00 | 0.00 | 0.00 | 43 | 1015.2 |
| 20260503181554 | 54 | 272 | 3.5 | 7.8 | 0.00 | 0.00 | 0.00 | 45 | 1015.3 |
| 20260503181047 | 54 | 254 | 2.6 | 7.8 | 0.00 | 0.00 | 0.00 | 43 | 1015.3 |
| 20260503180546 | 54 | 294 | 4.3 | 8.7 | 0.00 | 0.00 | 0.00 | 43 | 1015.4 |
| 20260503180053 | 54 | 314 | 3.5 | 8.7 | 0.00 | 0.00 | 0.00 | 48 | 1015.4 |
| 20260503175547 | 54 | 283 | 4.3 | 8.7 | 0.00 | 0.00 | 0.00 | 47 | 1015.5 |
| 20260503175047 | 54 | 190 | 2.6 | 7.8 | 0.00 | 0.00 | 0.00 | 45 | 1015.4 |
| 20260503174610 | 54 | 275 | 2.6 | 7.8 | 0.00 | 0.00 | 0.00 | 46 | 1015.4 |
| 20260503174051 | 53 | 262 | 4.3 | 8.7 | 0.00 | 0.00 | 0.00 | 44 | 1015.4 |
| 20260503173547 | 53 | 269 | 5.2 | 8.7 | 0.00 | 0.00 | 0.00 | 45 | 1015.4 |
| 20260503173105 | 52 | 286 | 2.6 | 8.7 | 0.00 | 0.00 | 0.00 | 46 | 1015.4 |
| 20260503172546 | 52 | 330 | 4.3 | 8.7 | 0.00 | 0.00 | 0.00 | 46 | 1015.5 |
| 20260503172047 | 52 | 261 | 2.6 | 8.7 | 0.00 | 0.00 | 0.00 | 45 | 1015.6 |
| 20260503171549 | 52 | 233 | 4.3 | 9.6 | 0.00 | 0.00 | 0.00 | 45 | 1015.4 |
| 20260503171047 | 52 | 277 | 4.3 | 14.8 | 0.00 | 0.00 | 0.00 | 45 | 1015.5 |
| 20260503170547 | 51 | 272 | 5.2 | 14.8 | 0.00 | 0.00 | 0.00 | 44 | 1015.6 |
| 20260503150546 | 46 | 296 | 2.6 | 7.0 | 0.00 | 0.00 | 0.00 | 54 | 1016.1 |
| 20260503131046 | 43 | 266 | 4.3 | 7.8 | 0.00 | 0.00 | 0.00 | 64 | 1016.1 |
| 20260503130545 | 43 | 269 | 2.6 | 7.8 | 0.00 | 0.00 | 0.00 | 64 | 1016.0 |